This demonstration page uses our WeatherBlox Daily Observations layout. Learn more.

40.92945, -100.16068

Hourly Observations for January 26, 2017

Temp ( °F °C ) Dew Point ( °F °C ) Humidity (%) Winds ( mph kmh ) Pressure ( in mb ) Visibility ( mi km ) Precip ( " mm )
12:15 am 00:15 Mostly Cloudy 21 -6.1 14 -9.8 75 75 NW 10 17 30.24 1024 10 16.0934 0 0
12:35 am 00:35 Cloudy 22 -5.8 15 -9.6 75 75 NW 14 22 30.24 1024 10 16.0934 0 0
12:55 am 00:55 Cloudy 21 -6 15 -9.6 76 76 NW 12 19 30.24 1024 10 16.0934 0 0
1:15 am 01:15 Cloudy 21 -6 15 -9.6 76 76 NW 12 19 30.24 1024 10 16.0934 0 0
1:35 am 01:35 Cloudy 22 -5.7 15 -9.5 75 75 NW 13 20 30.24 1024 10 16.0934 0 0
1:55 am 01:55 Cloudy 22 -5.7 15 -9.5 75 75 NW 13 20 30.24 1024 10 16.0934 0 0
2:15 am 02:15 Cloudy 22 -5.7 15 -9.5 75 75 NW 13 20 30.24 1024 10 16.0934 0 0
2:35 am 02:35 Cloudy 22 -5.7 15 -9.3 76 76 NW 10 17 30.24 1024 10 16.0934 0 0
2:55 am 02:55 Cloudy 22 -5.5 16 -9.1 76 76 NW 9 15 30.27 1025 10 16.0934 0 0
3:15 am 03:15 Cloudy 22 -5.5 16 -9 77 77 NW 12 19 30.27 1025 10 16.0934 0 0
3:35 am 03:35 Cloudy 23 -5.2 16 -9 75 75 NW 13 20 30.27 1025 10 16.0934 0 0
3:55 am 03:55 Cloudy 23 -5.1 16 -8.7 76 76 NW 13 20 30.27 1025 10 16.0934 0 0
4:15 am 04:15 Cloudy 23 -5.1 16 -8.9 75 75 NW 13 20 30.27 1025 10 16.0934 0 0
4:35 am 04:35 Mostly Cloudy 22 -5.6 15 -9.3 75 75 NW 13 20 30.27 1025 10 16.0934 0 0
4:55 am 04:55 Mostly Cloudy 21 -6.1 15 -9.6 77 77 NW 12 19 30.27 1025 10 16.0934 0 0
5:15 am 05:15 Partly Cloudy 19 -7.1 14 -10.2 79 79 WNW 8 13 30.27 1025 10 16.0934 0 0
5:35 am 05:35 Clear 18 -8 13 -10.6 82 82 WNW 8 13 30.3 1026 10 16.0934 0 0
5:55 am 05:55 Clear 16 -8.9 12 -11.2 84 84 WNW 9 15 30.3 1026 10 16.0934 0 0
6:15 am 06:15 Clear 17 -8.6 12 -11.1 82 82 WNW 9 15 30.3 1026 10 16.0934 0 0
6:35 am 06:35 Clear 15 -9.3 11 -11.7 83 83 WNW 8 13 30.3 1026 10 16.0934 0 0
6:55 am 06:55 Clear 13 -10.4 10 -12.5 85 85 W 7 11 30.33 1027 10 16.0934 0 0
7:15 am 07:15 Clear 14 -10 10 -12.1 85 85 WNW 10 17 30.33 1027 10 16.0934 0 0
7:35 am 07:35 Clear 16 -9.1 11 -11.6 82 82 WNW 9 15 30.33 1027 10 16.0934 0 0
7:55 am 07:55 Sunny 16 -9.1 10 -12 80 80 WNW 12 19 30.3 1026 10 16.0934 0 0
8:15 am 08:15 Sunny 16 -9.1 10 -12.1 79 79 WNW 10 17 30.33 1027 10 16.0934 0 0
8:35 am 08:35 Sunny 16 -8.9 10 -12 78 78 NW 8 13 30.33 1027 10 16.0934 0 0
8:55 am 08:55 Sunny 17 -8.5 10 -12 76 76 WNW 8 13 30.33 1027 10 16.0934 0 0
9:15 am 09:15 Sunny 17 -8.4 11 -11.8 77 77 WNW 9 15 30.33 1027 10 16.0934 0 0
9:35 am 09:35 Sunny 19 -7.5 11 -11.4 74 74 WNW 9 15 30.33 1027 10 16.0934 0 0
9:55 am 09:55 Sunny 20 -6.7 12 -10.9 72 72 WNW 10 17 30.36 1028 10 16.0934 0 0
10:15 am 10:15 Sunny 21 -5.9 14 -10.2 72 72 WNW 10 17 30.33 1027 10 16.0934 0 0
10:35 am 10:35 Sunny 23 -5.2 15 -9.7 71 71 WNW 8 13 30.33 1027 10 16.0934 0 0
10:55 am 10:55 Sunny 24 -4.5 15 -9.3 69 69 WNW 10 17 30.33 1027 10 16.0934 0 0
11:15 am 11:15 Sunny 25 -4 16 -9 69 69 WNW 9 15 30.33 1027 10 16.0934 0 0
11:35 am 11:35 Sunny 26 -3.2 17 -8.4 68 68 WNW 9 15 30.3 1026 10 16.0934 0 0
11:55 am 11:55 Sunny 27 -2.7 18 -8 67 67 WNW 9 15 30.3 1026 10 16.0934 0 0
12:15 pm 12:15 Sunny 28 -2 19 -7.4 67 67 NW 10 17 30.27 1025 10 16.0934 0 0
12:35 pm 12:35 Sunny 29 -1.5 19 -7.5 64 64 WNW 10 17 30.27 1025 10 16.0934 0 0
12:55 pm 12:55 Sunny 30 -1 19 -7.3 63 63 WNW 12 19 30.24 1024 10 16.0934 0 0
1:15 pm 13:15 Sunny 31 -0.6 19 -7.2 61 61 WNW 12 19 30.24 1024 10 16.0934 0 0
1:35 pm 13:35 Sunny 32 0 19 -7.2 59 59 NW 14 22 30.24 1024 10 16.0934 0 0
1:55 pm 13:55 Sunny 32 0 18 -7.7 57 57 NW 15 24 30.21 1023 10 16.0934 0 0
2:15 pm 14:15 Sunny 32 0.2 19 -7.2 58 58 NW 12 19 30.21 1023 10 16.0934 0 0
2:35 pm 14:35 Sunny 33 0.5 19 -7.4 56 56 NW 13 20 30.21 1023 10 16.0934 0 0
2:55 pm 14:55 Sunny 33 0.5 19 -7 58 58 NW 10 17 30.21 1023 10 16.0934 0 0
3:15 pm 15:15 Partly Cloudy 34 1.2 20 -6.9 55 55 NNW 16 26 30.21 1023 10 16.0934 0 0
3:35 pm 15:35 Mostly Cloudy 34 1 20 -6.8 56 56 NNW 18 30 30.21 1023 10 16.0934 0 0
3:55 pm 15:55 Partly Cloudy 33 0.8 20 -6.7 58 58 NNW 14 22 30.24 1024 10 16.0934 0 0
4:15 pm 16:15 Sunny 33 0.5 19 -7.4 56 56 NNW 12 19 30.24 1024 10 16.0934 0 0
4:35 pm 16:35 Sunny 32 0 18 -7.6 57 57 NNW 15 24 30.24 1024 10 16.0934 0 0
4:55 pm 16:55 Sunny 32 0 18 -7.7 57 57 NNW 14 22 30.24 1024 10 16.0934 0 0
5:15 pm 17:15 Sunny 31 -0.3 18 -7.6 58 58 NW 12 19 30.24 1024 10 16.0934 0 0
5:35 pm 17:35 Sunny 31 -0.8 18 -7.7 60 60 NW 16 26 30.24 1024 10 16.0934 0 0
5:55 pm 17:55 Clear 28 -2.1 18 -7.7 66 66 NW 13 20 30.27 1025 10 16.0934 0 0
6:15 pm 18:15 Clear 28 -2 18 -8 64 64 NW 12 19 30.27 1025 10 16.0934 0 0
6:35 pm 18:35 Clear 28 -2.5 17 -8.1 66 66 NW 12 19 30.3 1026 10 16.0934 0 0
6:55 pm 18:55 Clear 27 -2.8 18 -8 68 68 WNW 12 19 30.3 1026 10 16.0934 0 0
7:15 pm 19:15 Clear 27 -3 18 -8 69 69 NW 12 19 30.3 1026 10 16.0934 0 0
7:35 pm 19:35 Clear 26 -3.1 18 -8 69 69 WNW 12 19 30.3 1026 10 16.0934 0 0
7:55 pm 19:55 Clear 25 -3.7 17 -8.1 72 72 WNW 10 17 30.3 1026 10 16.0934 0 0
8:15 pm 20:15 Clear 24 -4.3 17 -8.1 75 75 WNW 12 19 30.33 1027 10 16.0934 0 0
8:35 pm 20:35 Clear 26 -3.5 18 -8 71 71 WNW 14 22 30.3 1026 10 16.0934 0 0
8:55 pm 20:55 Clear 26 -3.1 17 -8.2 68 68 WNW 15 24 30.3 1026 10 16.0934 0 0
9:15 pm 21:15 Clear 26 -3.6 17 -8.3 70 70 WNW 16 26 30.3 1026 10 16.0934 0 0
9:35 pm 21:35 Clear 25 -4 17 -8.5 71 71 WNW 13 20 30.33 1027 10 16.0934 0 0
9:55 pm 21:55 Clear 24 -4.3 17 -8.5 73 73 WNW 15 24 30.33 1027 10 16.0934 0 0
10:15 pm 22:15 Clear 23 -4.8 17 -8.5 76 76 WNW 13 20 30.33 1027 10 16.0934 0 0
10:35 pm 22:35 Clear 24 -4.6 17 -8.6 74 74 NW 15 24 30.33 1027 10 16.0934 0 0
10:55 pm 22:55 Clear 24 -4.6 16 -8.7 73 73 NW 16 26 30.33 1027 10 16.0934 0 0
11:15 pm 23:15 Clear 24 -4.7 16 -8.7 74 74 WNW 17 28 30.33 1027 10 16.0934 0 0
11:35 pm 23:35 Clear 24 -4.7 16 -8.7 74 74 WNW 15 24 30.33 1027 10 16.0934 0 0
11:55 pm 23:55 Clear 24 -4.7 16 -8.7 74 74 WNW 17 28 30.36 1028 10 16.0934 0 0

Powered by AerisWeather